Dewpoint
63 51 49 52 49 43 35 32 19 20 23 18 20 19 12 20 26 20 18 17 13 38 56 58 56 56 53 53 55 62 62 54 54 47 45 56 66 66 69 71 72 73 73 74 74 74 73 74 73 73 73 73 73 73 73 73 73 73 73 73 72 72 72 72 72 71 71 71 72 72 72 72 72 73 73 73 73 73 73 72 71 71 70 69 69 69 69 69 69 69 69 69 69 70 70 70 70
57 50 49 47 44 38 35 26 21 20 19 14 13 16 16 19 25 17 16 16 11 54 57 58 59 61 61 62 62 61 59 63 64 62 65 67 68 69 70 72 72 72 73 73 73 73 73 73 73 73 73 72 73 73 73 73 73 72 72 73 73 72 72 72 72 71 71 71 71 71 72 71 72 73 73 73 73 73 71 71 71 71 70 70 69 69 69 69 69 69 69 69 69 70 70 70 69
47 46 46 44 40 39 37 27 18 20 17 8 5 13 14 11 12 13 16 17 10 53 57 57 58 58 60 60 58 56 53 64 64 65 65 67 66 69 71 71 72 73 73 73 73 73 73 73 73 73 73 73 72 72 73 73 73 72 71 73 72 73 72 72 72 72 72 71 71 71 72 71 72 72 72 72 72 72 71 71 70 70 69 69 69 69 69 69 69 69 69 69 70 70 70 69 69
50 51 46 43 36 30 30 26 22 18 16 12 11 12 13 10 9 12 14 13 12 51 55 58 58 60 58 60 61 63 63 63 64 65 65 65 66 70 71 71 73 73 73 73 73 73 73 73 73 73 73 73 72 73 73 73 73 72 72 73 73 72 72 72 72 72 72 72 72 72 72 72 72 72 71 71 72 71 71 71 70 69 69 69 69 69 69 69 69 69 69 69 70 70 69 69 69
47 49 46 43 29 31 29 27 24 18 13 15 2 7 25 20 15 16 19 21 24 41 56 59 58 59 60 60 60 58 61 64 64 65 65 66 70 70 71 72 72 72 72 72 73 72 72 74 73 73 73 73 73 73 73 73 73 73 72 73 73 72 72 72 72 72 72 72 72 72 72 72 72 72 72 72 72 72 71 72 72 71 70 69 69 69 69 69 69 69 69 69 69 69 69 69 69
39 39 44 44 38 30 27 23 25 19 15 17 15 14 19 17 20 23 23 19 53 47 59 58 57 58 59 61 62 60 64 62 64 65 65 67 70 71 72 72 72 72 72 72 72 72 73 74 73 73 73 73 73 73 72 73 73 73 73 73 73 72 72 72 72 72 72 72 71 72 72 72 72 72 72 72 72 71 71 71 71 70 69 69 69 69 69 69 68 68 69 69 70 70 70 70 70
36 36 37 37 35 31 29 22 20 21 22 22 20 19 20 21 23 24 22 19 49 57 58 58 59 59 58 60 62 64 64 65 65 65 66 68 70 71 71 71 71 71 72 72 72 72 73 73 73 73 73 73 73 73 73 72 73 73 73 73 72 72 72 72 72 72 72 71 71 71 72 72 71 71 71 71 71 71 71 71 70 70 69 69 69 70 70 69 68 69 69 70 70 70 70 70 70
44 34 35 33 29 26 23 22 21 21 21 23 24 23 23 24 24 24 24 22 31 54 57 59 59 59 58 62 60 64 65 66 66 66 67 69 70 70 71 71 71 71 72 72 72 72 73 73 73 73 73 73 73 73 73 73 73 73 73 72 72 72 72 72 72 72 72 71 71 71 71 71 71 71 71 71 71 71 71 70 70 69 69 69 69 70 69 69 69 69 70 70 70 70 70 70 70
30 27 33 21 23 24 18 18 19 21 21 21 21 25 39 30 27 24 21 21 17 53 58 58 59 55 58 61 61 64 65 66 66 67 67 68 69 70 70 70 70 71 72 72 72 72 72 73 73 73 73 73 73 73 73 73 73 73 73 72 72 72 72 72 72 72 71 71 71 71 71 71 71 71 71 71 71 70 70 70 70 69 69 69 70 70 69 69 69 70 70 70 70 70 70 69 70
25 25 23 25 20 19 16 14 15 14 14 18 19 17 17 17 15 17 16 14 16 56 58 60 60 57 61 61 63 63 64 66 66 65 67 67 69 70 70 70 71 71 72 72 72 72 72 73 73 73 73 73 73 73 73 73 73 72 72 72 72 72 72 72 72 72 71 71 71 71 71 71 71 71 71 71 71 70 70 70 70 70 70 69 70 70 69 69 69 69 69 69 69 69 69 69 69
25 22 31 22 23 19 16 14 15 15 14 14 14 14 12 11 10 9 10 9 54 57 60 61 60 61 61 62 63 66 66 65 65 64 66 67 69 69 70 71 71 71 71 72 72 72 72 72 73 73 73 73 73 73 73 73 73 72 72 72 72 72 72 72 72 71 71 71 71 71 72 71 71 71 71 71 71 70 70 70 70 70 70 70 70 70 69 69 69 69 69 69 69 69 69 69 69
23 20 21 21 21 18 16 15 15 16 17 19 18 19 19 18 16 11 8 19 56 58 58 60 59 62 61 62 63 66 66 65 65 65 66 68 69 69 70 71 71 71 72 72 72 72 72 72 72 73 73 73 73 73 73 73 73 72 72 72 72 72 72 72 72 71 71 71 71 71 72 71 71 71 70 71 71 70 70 70 70 70 70 71 71 70 70 69 69 68 68 69 69 69 69 69 68
25 21 21 19 18 19 23 18 17 30 19 13 14 15 11 8 9 11 33 45 57 57 54 55 62 61 59 61 66 66 65 65 65 66 67 68 69 69 70 70 71 71 72 72 71 72 72 72 72 72 73 73 73 72 73 73 72 72 72 72 72 72 72 72 72 72 71 71 71 71 71 71 71 71 71 70 70 70 70 70 70 70 70 71 70 70 70 69 69 69 69 69 69 68 68 68 68
26 23 20 18 21 18 13 13 14 11 10 11 11 11 10 9 8 17 56 55 55 54 58 62 61 62 62 63 64 65 66 66 65 67 68 69 69 69 70 70 70 71 71 71 71 71 72 72 72 72 72 72 72 72 72 72 72 72 72 72 72 72 72 72 72 72 71 71 71 71 71 71 71 70 70 70 70 70 70 70 70 70 70 70 70 70 69 69 69 69 69 68 68 68 68 68 67
26 25 23 22 17 17 15 12 10 9 11 13 15 9 11 36 47 53 56 56 58 61 61 61 62 58 59 61 62 64 66 67 66 68 69 69 69 69 69 70 70 70 70 71 71 71 71 72 72 72 71 71 71 71 71 71 71 72 71 72 72 72 72 72 72 71 71 71 71 71 71 71 70 71 70 70 70 70 70 69 70 69 69 69 69 69 69 69 69 69 68 68 68 67 67 67 67
28 21 22 21 17 15 15 14 15 12 12 12 12 11 11 39 56 51 54 57 59 61 60 58 60 55 60 62 63 66 67 67 68 69 69 68 68 69 69 69 69 70 70 70 71 71 71 71 71 71 71 71 71 71 70 70 71 72 72 72 72 71 71 71 71 71 71 71 71 71 70 70 70 70 70 70 70 70 70 69 69 68 68 68 68 68 68 68 69 68 68 67 67 67 67 67 67
22 22 21 17 14 14 13 14 14 12 13 11 11 10 9 22 52 60 62 59 59 61 62 63 62 63 62 63 66 67 67 68 69 68 68 67 67 67 68 68 69 69 70 70 70 71 71 71 70 70 71 71 71 70 69 69 71 71 71 71 71 71 70 70 71 70 70 70 70 70 69 69 69 69 69 69 70 69 70 69 68 68 68 67 67 67 67 68 68 67 67 66 67 68 67 67 66
24 20 20 18 15 13 16 15 13 13 10 10 10 11 9 25 51 57 59 60 61 62 62 63 65 65 65 66 67 67 68 68 68 67 67 66 66 66 66 67 67 67 69 69 70 70 70 70 70 70 70 70 70 69 69 69 70 70 69 70 70 70 70 70 70 69 70 69 70 69 68 69 68 68 69 70 69 70 69 69 68 68 67 68 68 68 68 68 67 67 67 68 67 67 65 61 62
27 22 19 17 15 14 14 13 13 10 10 11 11 11 12 26 52 49 56 57 58 60 61 63 63 65 66 67 67 67 67 67 67 67 66 66 66 65 65 66 66 67 68 69 69 69 70 70 70 70 70 70 69 69 69 69 68 68 68 68 69 70 70 69 69 68 66 66 67 67 68 67 68 68 68 69 70 70 69 69 68 68 68 68 68 68 68 67 68 68 67 66 66 66 61 60 60
28 22 15 15 13 13 14 12 11 12 12 11 11 11 11 10 23 47 55 57 58 58 60 62 63 63 65 66 67 67 67 67 67 66 66 66 66 65 65 65 66 66 67 68 68 69 70 70 70 70 69 69 68 68 68 68 67 67 67 68 68 68 68 68 67 66 66 66 66 66 66 67 67 67 69 70 70 69 69 69 68 68 68 68 68 69 68 68 68 67 66 66 65 64 61 61 62
21 25 22 19 14 13 14 14 13 12 12 12 12 12 11 11 15 55 57 54 54 56 60 61 62 64 65 66 67 67 67 67 66 66 66 66 66 65 65 65 65 66 67 68 68 69 69 70 69 69 69 68 68 68 68 67 67 67 67 67 67 67 67 68 67 66 66 66 66 66 66 66 65 66 67 68 68 68 67 67 67 67 66 66 67 65 65 65 63 62 62 63 61 62 62 62 62
17 21 24 22 18 15 16 13 12 12 13 12 12 11 10 19 55 56 55 47 48 55 59 62 64 65 65 66 66 67 66 66 66 66 66 66 66 65 64 64 66 67 67 67 67 68 69 69 69 69 68 68 68 68 67 67 67 66 67 66 66 66 67 67 67 66 66 66 66 66 66 65 66 66 67 67 67 67 66 66 65 65 65 65 66 64 63 63 62 62 62 63 63 63 63 62 62
25 25 21 19 14 13 14 13 13 12 11 11 10 10 11 12 43 55 54 46 47 58 60 63 64 65 66 66 66 66 66 66 66 66 66 66 65 65 64 65 66 66 67 67 67 68 69 69 69 68 67 67 67 68 68 67 66 66 66 66 66 66 67 67 67 66 66 66 65 66 65 64 65 66 67 67 66 66 66 65 65 64 64 64 66 64 63 63 63 63 63 63 63 63 63 63 62
26 25 23 21 17 14 13 12 11 9 9 9 10 12 10 10 15 39 52 47 51 63 64 64 65 65 66 66 66 66 66 66 66 67 67 66 64 63 63 64 66 66 66 66 67 67 68 68 68 68 67 67 67 68 67 65 65 65 66 68 66 67 67 67 67 67 66 65 66 66 66 65 66 66 66 66 66 65 64 64 64 64 64 65 65 64 63 62 63 63 63 62 63 63 63 63 63
20 19 19 18 17 14 12 10 9 8 9 9 11 10 9 9 9 42 48 53 62 63 64 64 65 65 65 66 66 66 66 66 65 62 62 62 64 64 64 65 65 66 65 66 66 67 67 68 68 67 67 67 67 67 65 65 65 64 66 66 65 68 67 67 67 67 66 66 66 66 66 65 65 65 65 65 65 65 64 64 63 63 63 63 63 62 62 62 62 63 63 63 62 62 61 63 62
20 21 20 18 16 14 11 8 6 7 8 10 9 8 9 9 16 46 47 61 63 64 64 64 64 64 65 65 65 65 65 61 61 61 61 63 63 63 63 63 62 63 65 66 66 66 67 68 67 67 67 67 67 66 65 65 65 65 66 65 66 67 66 67 67 66 66 66 65 65 65 64 65 65 65 64 64 63 63 63 64 62 62 62 62 62 63 62 63 63 63 63 62 61 62 63 61
17 16 15 15 13 10 7 5 5 6 9 10 8 8 8 9 11 32 45 62 63 63 63 64 64 64 64 64 64 62 59 60 60 61 61 61 62 62 62 62 63 63 64 65 66 65 66 67 67 67 67 67 66 65 65 65 65 65 66 65 66 67 67 67 67 66 65 65 65 65 64 64 64 65 65 64 64 64 63 63 63 63 63 62 62 63 63 62 61 62 62 62 61 62 63 62 61
14 11 9 8 7 6 5 5 4 6 5 8 9 8 8 7 7 17 49 62 63 62 63 63 63 63 64 64 64 60 60 60 61 60 60 60 61 62 61 61 61 63 64 65 65 65 66 66 66 67 67 66 66 65 65 65 64 65 65 66 66 66 67 66 66 65 65 64 65 64 64 64 65 64 64 64 63 63 63 64 64 63 63 63 62 63 63 63 63 63 63 63 63 63 62 62 61
11 13 9 9 9 8 8 5 6 7 5 9 9 8 6 8 2 7 55 62 63 62 62 62 62 62 63 64 62 61 60 60 59 60 60 61 62 63 62 62 61 63 65 65 65 65 65 65 66 66 67 66 65 64 65 64 64 65 65 66 66 66 67 66 65 64 64 64 64 64 65 64 64 64 64 64 64 62 63 63 63 63 63 63 64 64 64 63 64 64 63 63 63 63 62 61 62
16 14 10 10 10 9 9 9 8 7 7 10 7 6 8 7 8 8 58 62 62 62 62 62 62 63 63 61 59 60 60 59 59 60 60 61 62 62 62 62 62 63 64 65 65 64 65 65 66 66 66 65 65 64 64 64 65 65 65 67 67 66 66 65 65 64 65 64 64 65 65 65 64 64 64 63 62 63 63 63 63 63 63 63 63 64 63 63 63 63 62 63 63 62 60 60 60
10 11 13 13 11 10 9 12 10 7 10 10 7 9 8 9 9 17 56 61 61 61 62 62 62 63 63 59 59 60 60 59 59 60 60 61 62 63 62 62 62 63 65 65 64 64 65 65 65 65 66 65 65 64 65 65 65 65 66 67 67 66 65 64 64 64 64 64 64 65 65 65 64 64 64 63 62 63 63 62 62 62 63 62 62 62 63 63 62 62 62 62 62 62 62 61 60
14 9 9 16 9 9 10 12 15 7 8 9 7 13 7 8 8 11 53 60 61 60 61 61 62 62 60 59 59 59 60 59 60 60 60 61 62 62 62 62 62 63 64 64 65 65 65 65 65 65 66 65 65 64 64 65 65 66 66 67 66 66 65 64 64 64 64 64 64 64 64 65 64 64 63 62 62 62 62 62 61 62 63 63 62 63 63 62 61 61 62 61 61 62 62 61 60
20 11 17 15 16 13 10 11 10 9 9 9 6 7 7 6 7 22 51 58 59 59 59 60 61 61 58 59 59 59 59 59 59 59 60 60 61 61 62 61 62 63 64 64 64 65 65 65 65 65 65 65 65 65 65 66 66 66 66 66 65 65 64 64 63 63 63 64 64 64 64 64 63 64 63 62 62 62 62 62 62 62 63 63 63 62 61 61 61 61 61 61 62 61 60 59 59
14 18 15 22 14 15 12 10 10 9 9 6 6 6 10 10 14 28 49 56 56 57 58 59 60 59 58 58 58 58 58 58 58 58 59 60 60 60 61 62 62 64 64 64 64 65 65 65 65 65 65 65 65 65 65 65 65 65 65 64 65 64 63 63 63 63 63 63 64 64 64 64 64 64 63 62 62 62 62 62 61 61 62 63 62 61 61 61 60 61 60 61 62 61 60 60 60
12 15 13 15 16 15 12 10 10 7 8 8 12 9 8 7 8 31 47 54 54 56 57 59 59 57 58 58 58 58 58 58 58 58 59 59 59 60 61 62 63 64 65 65 65 65 65 65 65 65 64 64 65 65 65 64 64 64 63 63 63 63 63 63 63 62 63 63 63 64 64 65 65 64 63 63 63 63 62 61 62 61 61 61 61 60 61 61 60 59 61 60 61 60 60 59 60
12 16 17 21 16 13 12 11 10 8 8 6 8 6 6 9 9 18 43 52 51 55 56 58 58 57 57 57 57 57 57 58 58 59 59 58 59 60 61 62 64 65 65 65 65 65 65 65 64 64 64 64 64 64 64 63 63 63 62 62 62 62 63 63 62 61 62 62 63 64 64 64 65 64 63 63 63 63 62 62 61 61 60 60 60 60 59 59 60 59 59 60 59 60 60 60 60
14 15 15 12 11 11 12 11 11 10 9 9 9 10 9 8 8 14 37 49 50 53 55 57 57 57 57 57 58 57 57 57 58 58 58 59 60 61 62 63 64 64 64 65 65 65 64 64 64 63 63 64 63 63 63 62 62 62 62 62 61 61 61 61 61 61 61 62 63 64 64 64 64 64 63 63 63 64 63 62 62 61 61 61 60 61 60 60 60 61 61 60 59 58 59 60 58
17 15 14 10 12 12 13 13 15 16 20 18 18 13 10 11 12 15 33 47 49 53 55 56 56 57 57 57 57 57 57 57 58 58 60 60 61 62 63 63 64 63 63 64 64 64 64 64 63 63 63 63 63 63 62 62 61 62 61 61 60 60 61 60 60 61 61 62 63 64 64 64 64 63 63 63 63 63 62 62 62 62 61 60 61 61 60 62 61 60 60 59 59 58 59 60 59
24 16 15 15 14 15 15 19 20 20 22 18 19 17 16 17 18 25 35 46 47 52 55 56 56 56 57 57 57 56 57 57 58 58 60 60 60 62 63 63 63 63 63 64 64 64 64 63 63 63 62 62 62 62 62 61 60 61 60 59 61 59 59 60 61 62 63 63 63 64 64 64 64 63 63 63 63 63 62 61 61 60 60 62 61 61 60 60 60 59 59 60 58 58 58 58 59
22 21 19 17 17 15 13 24 25 25 24 22 21 18 18 22 35 37 36 42 44 49 54 56 57 56 57 56 56 56 57 57 57 58 59 59 60 62 62 62 63 63 63 63 63 63 63 63 62 62 62 61 61 61 61 60 61 60 60 60 60 59 59 60 60 61 61 62 62 63 63 63 63 63 63 63 62 62 61 61 60 60 60 60 60 60 60 60 60 59 58 58 58 57 56 57 60
28 26 21 18 16 16 14 17 27 31 27 30 19 18 14 22 18 41 46 47 40 53 54 55 56 56 56 55 56 57 57 57 57 58 58 59 60 61 62 62 63 62 62 63 63 63 63 62 62 61 61 61 61 62 60 61 61 60 60 59 59 59 60 59 60 59 59 60 60 60 61 61 62 63 62 62 62 61 60 60 60 59 59 59 59 59 59 60 60 60 59 58 57 58 56 56 57
22 28 24 21 20 19 19 25 21 21 16 27 12 12 15 18 32 42 44 48 49 52 53 54 55 55 55 55 55 56 56 57 57 58 58 59 60 61 61 62 62 62 62 63 63 63 63 62 62 61 61 61 61 61 60 61 60 59 58 58 58 58 58 58 58 58 58 58 58 57 59 60 60 59 59 60 61 60 58 57 57 58 57 57 57 57 56 57 58 59 60 59 57 57 58 55 56
18 19 26 23 20 21 21 22 21 15 12 21 24 14 14 21 31 40 46 49 51 52 53 54 54 54 55 55 55 55 56 56 57 58 58 59 60 60 61 62 62 62 62 63 63 63 63 63 62 62 61 61 61 60 60 61 59 59 58 58 58 58 58 57 56 56 57 56 57 57 56 57 57 57 56 57 58 58 56 56 56 56 57 56 57 56 56 56 56 57 59 58 58 58 57 55 56
18 26 27 24 22 23 24 22 18 18 28 28 29 17 12 19 29 40 48 50 50 51 53 54 54 54 54 54 55 55 55 56 57 57 58 59 60 60 60 62 62 62 63 63 62 62 63 62 62 61 61 61 61 60 60 60 59 58 57 57 57 58 58 57 56 56 56 57 57 56 56 55 55 55 55 55 56 58 57 56 56 57 57 56 58 56 56 56 57 58 57 57 58 58 57 58 56
19 27 24 23 22 24 22 20 21 22 17 11 18 29 16 17 26 42 45 48 49 50 52 53 54 54 54 54 55 55 55 55 57 57 58 59 60 60 61 61 62 63 63 62 62 62 63 63 62 61 61 61 60 60 60 58 58 57 56 56 56 56 56 56 57 57 56 56 55 54 54 53 53 53 54 55 55 57 58 56 56 56 56 56 56 55 54 55 55 55 56 56 57 56 56 56 56
19 22 26 24 23 22 22 19 15 17 10 10 15 24 17 18 27 33 45 48 48 49 51 53 53 53 54 54 55 56 56 56 57 58 58 60 60 60 61 61 62 62 63 62 62 63 63 63 62 61 61 60 60 60 59 57 57 56 55 55 55 55 56 56 55 54 54 54 54 53 52 52 52 53 53 53 54 55 56 57 56 55 54 55 55 54 54 54 54 54 54 55 55 55 55 56 56
28 22 19 17 20 22 26 22 22 19 9 13 15 26 20 16 23 32 42 45 48 50 51 51 52 52 53 54 55 56 57 57 57 58 59 60 61 61 61 61 61 62 62 62 62 63 63 63 62 61 60 60 59 59 57 57 57 55 55 55 55 55 56 55 54 53 53 53 52 52 52 52 52 53 53 54 54 55 55 56 54 54 55 57 55 54 53 53 53 53 53 52 52 53 52 53 53
20 19 17 14 16 21 15 22 20 9 11 16 18 26 23 14 20 29 37 39 47 50 50 50 51 51 52 54 55 56 57 57 57 57 58 60 60 60 60 60 61 62 62 62 62 63 63 63 62 61 59 59 59 58 57 56 56 55 55 55 55 55 55 55 54 53 52 52 52 51 51 51 51 51 52 52 53 54 55 54 55 54 54 53 53 52 52 53 52 52 51 51 51 51 51 51 49
18 19 17 16 16 14 8 16 7 7 12 16 24 24 18 18 27 36 40 43 46 50 50 50 51 51 51 54 55 56 57 57 57 57 58 59 59 59 59 60 60 61 61 61 62 62 63 62 62 61 59 58 58 57 56 56 56 56 56 55 55 56 55 55 54 52 52 51 51 50 50 50 50 50 51 51 50 52 53 52 53 52 52 52 52 52 51 52 51 51 51 50 50 49 48 48 47
14 13 16 12 7 8 5 12 12 14 16 21 21 24 20 27 33 39 43 45 45 49 48 49 50 51 52 54 55 56 57 57 57 58 58 58 59 59 59 60 60 61 61 61 62 62 63 62 61 60 58 58 57 57 57 56 56 56 55 55 55 55 55 55 54 52 52 51 51 50 50 50 50 50 50 50 50 51 51 52 52 51 51 52 51 51 50 50 50 49 49 49 49 48 49 48 48
10 12 11 16 15 13 5 14 6 9 12 18 25 16 13 26 33 42 45 46 47 47 49 49 50 51 52 54 55 56 56 57 57 58 58 58 59 59 59 60 60 61 61 61 61 62 62 62 61 60 58 57 57 56 56 57 57 56 55 55 55 55 55 55 53 53 52 51 51 50 50 49 50 50 50 50 52 51 51 51 51 52 51 50 50 50 51 50 50 50 51 50 50 49 49 49 47
21 18 14 14 13 21 10 19 19 19 14 13 23 19 28 32 41 44 47 48 48 48 48 49 49 51 51 52 53 54 56 57 58 58 58 58 59 59 59 60 60 60 61 61 61 62 62 61 61 59 59 58 57 57 56 57 57 56 55 55 55 55 56 55 54 54 52 51 51 50 50 50 51 51 51 51 51 50 50 51 51 50 49 49 49 49 49 49 49 50 49 49 49 51 48 47 46
22 13 13 15 20 19 19 19 24 17 17 11 16 32 33 38 40 43 47 49 49 49 48 49 50 51 51 52 53 55 56 57 58 58 58 58 59 59 59 60 60 60 61 61 61 62 62 61 60 59 58 57 57 56 56 56 57 56 55 55 55 55 55 54 54 53 51 51 51 50 50 51 52 51 51 51 50 50 50 50 50 49 49 49 49 49 49 48 48 48 48 47 48 47 49 47 47
17 15 16 24 25 27 22 14 17 13 10 14 26 29 30 29 28 38 44 47 47 48 49 49 50 51 51 53 53 55 55 56 57 58 59 59 59 59 59 60 60 61 61 61 61 61 61 61 60 58 58 57 57 56 56 56 56 56 55 55 55 55 54 54 54 52 52 51 51 51 52 52 51 52 52 52 50 51 52 53 49 49 48 48 48 48 48 48 48 47 47 48 48 48 49 47 48
16 19 19 18 15 13 20 21 12 11 10 11 22 27 29 28 30 39 40 42 45 47 49 50 51 52 52 52 53 54 54 55 56 57 58 58 59 59 59 59 60 61 61 61 61 61 61 60 59 59 58 58 57 57 57 57 57 56 55 55 55 55 55 55 54 53 52 51 51 52 52 51 52 53 52 51 51 51 49 48 48 48 48 48 48 48 48 48 48 48 49 48 47 47 47 47 47
22 21 24 29 24 23 15 17 21 19 12 10 16 24 23 37 40 43 43 45 45 47 48 48 50 52 52 52 52 53 53 54 55 55 56 57 57 58 59 59 59 59 60 60 60 60 60 60 59 58 58 58 58 58 58 58 57 57 56 55 55 55 55 55 54 53 52 51 52 52 51 51 51 52 52 52 52 50 49 48 49 49 48 48 48 49 49 48 48 48 48 48 47 47 47 46 46
13 16 20 22 26 28 23 25 19 18 16 13 16 19 26 35 44 45 45 45 46 47 48 48 50 51 52 52 52 52 53 54 54 54 55 55 55 55 56 57 58 58 59 59 59 59 59 60 59 58 57 57 57 57 58 57 57 57 56 55 55 55 55 54 54 53 52 52 52 52 51 51 52 51 53 52 51 50 50 50 50 50 49 48 48 49 49 48 48 47 46 47 47 48 48 46 47
24 22 21 21 21 18 15 16 24 24 21 15 16 14 28 39 46 47 46 45 46 48 48 48 49 50 51 51 51 53 53 53 54 54 54 54 55 55 55 55 56 56 56 57 59 59 59 58 58 58 58 57 56 56 57 57 56 57 57 56 56 55 55 54 53 54 52 52 52 52 52 52 51 52 53 52 51 51 51 51 50 50 49 48 49 49 50 48 48 47 47 50 47 47 47 46 46